Regional Weather Roundup
Issued by NWS

Home | Current Version | Previous Version | Graphics & Text | Print | Product List | Glossary On
Versions: 1 2 3 4 5 6 7 8 9 10 11 12 13 14 15 16 17 18 19 20 21 22 23 24 25 26 27 28 29 30 31 32 33 34 35 36 37 38 39 40 41 42 43 44 45 46 47 48 49 50
000
ASUS43 KMPX 192301
RWRMN
WEATHER ROUNDUP FOR MINNESOTA
NATIONAL WEATHER SERVICE TWIN CITIES/CHANHASSEN MN
500 PM CST FRI DEC 19 2014


NOTE: "FAIR" INDICATES FEW OR NO CLOUDS BELOW 12,000 FEET WITH NO
SIGNIFICANT WEATHER AND/OR OBSTRUCTIONS TO VISIBILITY. N/A MEANS
CURRENT SKY AND/OR WEATHER CONDITIONS ARE NOT AVAILABLE.

MNZ060>063-068>070-200000-
   Twin Cities Metro

CITY           SKY/WX    TMP DP  RH WIND       PRES   REMARKS
TWIN CITIES    CLOUDY    29  24  82 SE9       30.20R WCI  20
ST PAUL        CLOUDY    28  24  85 SE12      30.22R WCI  18
CRYSTAL        CLOUDY    30  24  78 SE10      30.18R HAZE    WCI  21
BLAINE         CLOUDY    28  27  93 SE10      30.18S WCI  19
LAKEVILLE      MOCLDY    28  25  86 SE8       30.19S WCI  20
EDEN PRAIRIE   CLOUDY    30  25  81 S10       30.18R WCI  21
SOUTH ST PAUL  CLOUDY    29  24  81 SE6       30.20S WCI  23
LAKE ELMO      CLOUDY    28  25  86 SE8       30.21S WCI  20
$$
MNZ001>005-007-008-013>017-022>024-027-028-200000-
   Northwest Minnesota

CITY           SKY/WX    TMP DP  RH WIND       PRES   REMARKS
BEMIDJI        LGT SNOW  23  22  96 SE7       30.06S WCI  15
HALLOCK        CLOUDY    28  27  93 S7        30.03S FOG     WCI  21
ROSEAU         CLOUDY    27  21  80 SE7       30.06R FOG     WCI  19
WARROAD        CLOUDY    25  19  80 SE7       30.07R FOG     WCI  17
THIEF RVR FALL CLOUDY    27  25  93 SE10      30.04S WCI  17
CROOKSTON      CLOUDY    28  27  93 S12       30.05R FOG     WCI  18
FOSSTON        CLOUDY    25  23  93 SE9       30.04S FOG     WCI  15
DETROIT LAKES  LGT SNOW  30  28  93 S13       30.04S VSB 1   WCI  20
MOORHEAD       DRIZZLE   30  30 100 S13G20    30.04S WCI  20
PARK RAPIDS    FOG       25  24  96 SE13      30.07R VSB 1/2 WCI  14
MAHNOMEN       CLOUDY    27  26  96 S10       30.03S FOG     WCI  17
$$
MNZ006-009>011-018-025>026-200000-
   North Central Minnesota

CITY           SKY/WX    TMP DP  RH WIND       PRES   REMARKS
BAUDETTE       CLOUDY    24  21  88 SE7       30.07S WCI  16
FLAG ISLAND    CLOUDY    25  21  86 S10       30.07R FOG     WCI  15
INTL FALLS     CLOUDY    24  19  81 SE9       30.11S WCI  14
WASKISH        CLOUDY    25  23  93 CALM      30.09R FOG
BIG FORK       CLOUDY    25  21  86 SE6       30.11S WCI  18
LONGVILLE      CLOUDY    23  21  93 SE8       30.10S FOG     WCI  14
GRAND RAPIDS   CLOUDY    23  19  86 SE8       30.11S WCI  14
CRANE LAKE     CLOUDY    21  19  93 CALM      30.17S
ORR            CLOUDY    23  19  86 SE6       30.11S WCI  16
COOK           CLOUDY    23  21  93 SE5       30.14S WCI  17
WALKER         CLOUDY    23  22  96 S5        30.09R FOG     WCI  17
$$
MNZ012-019>021-037-200000-
   Northeast Minnesota

CITY           SKY/WX    TMP DP  RH WIND       PRES   REMARKS
DULUTH         FLURRIES  24  20  84 SE7       30.16R WCI  16
ELY            FLURRIES  21  19  93 S5        30.16R WCI  15
HIBBING        CLOUDY    24  20  84 SE8       30.14S WCI  15
EVELETH        CLOUDY    25  21  86 SE6       30.16S WCI  18
DULUTH HARBOR  CLOUDY    28  23  80 CALM      30.23R
TWO HARBORS    CLOUDY    28  23  80 E1        30.18R
SILVER BAY     CLOUDY    27  23  86 CALM      30.18S
GRAND MARAIS     N/A     30  23  75 S8        30.24R WCI  22
G MARAIS ARPRT CLOUDY    21  16  79 SE5       30.17S WCI  15
$$
MNZ029>031-032-039>041-046>048-054>057-064-200000-
   West Central Minnesota

CITY           SKY/WX    TMP DP  RH WIND       PRES   REMARKS
FERGUS FALLS   CLOUDY    28  28 100 S15       30.08S FOG     WCI  17
WHEATON        CLOUDY    28  27  93 S12       30.07S WCI  18
MORRIS         CLOUDY    30  28  93 S15       30.07R FOG     WCI  19
ALEXANDRIA     CLOUDY    29  27  92 S10       30.09R FOG     WCI  20
ELBOW LAKE     CLOUDY    29  28  97 S13       30.06S FOG     WCI  19
WADENA         FOG       27  27 100 SE3       30.07S VSB 1
GLENWOOD       CLOUDY    28  28 100 S17       30.10R FOG     WCI  16
APPLETON       CLOUDY    32  28  86 S6        30.09R WCI  26
BENSON         CLOUDY    30  28  93 S10G18    30.10R WCI  21
ORTONVILLE     CLOUDY    30  27  86 S9        30.06S WCI  22
MADISON        MOCLDY    36  34  93 S6        30.08S FOG
WILLMAR        CLOUDY    32  28  86 S5        30.13R FOG     WCI  27
$$
MNZ033>034-036-042>043-049>051-058-059-200000-
   Central Minnesota

CITY           SKY/WX    TMP DP  RH WIND       PRES   REMARKS
ST CLOUD       CLOUDY    29  24  82 SE13      30.15R HAZE    WCI  19
SAUK CENTRE    CLOUDY    29  28  96 S10       30.10S FOG     WCI  20
PAYNESVILLE    CLOUDY    28  27  96 E8        30.13R FOG     WCI  20
AITKIN         CLOUDY    27  21  80 SE7       30.12S HAZE    WCI  19
PINE RIVER     CLOUDY    25  25 100 SE9       30.14R FOG     WCI  15
BRAINERD       CLOUDY    24  23  96 SE8       30.12S FOG     WCI  15
STAPLES        CLOUDY    25  25 100 SE6       30.10R FOG     WCI  18
LONG PRAIRIE   CLOUDY    28  28 100 SE8       30.10R FOG     WCI  20
LITTLE FALLS   CLOUDY    27  25  93 SE8       30.13S FOG     WCI  18
LITCHFIELD     CLOUDY    30  30 100 S5        30.14S WCI  25
BUFFALO        CLOUDY    29  26  86 SE5       30.18R FOG     WCI  24
MAPLE LAKE     CLOUDY    30  28  92 SE6       30.17R FOG     WCI  24
$$
MNZ037-044-045-052-053-200000-
   East Central Minnesota

CITY           SKY/WX    TMP DP  RH WIND       PRES   REMARKS
PRINCETON      CLOUDY    28  25  86 SE7       30.17R WCI  21
MORA           CLOUDY    27  21  80 SE3       30.19R
CAMBRIDGE      CLOUDY    28  21  74 SE7       30.17R WCI  21
RUSH CITY      CLOUDY    27  23  85 SE6       30.19S WCI  20
MOOSE LAKE     CLOUDY    27  21  80 CALM      30.16S
HINCKLEY       CLOUDY    28  23  80 CALM      30.18S
CLOQUET        CLOUDY    25  21  86 CALM      30.17R
MCGREGOR       CLOUDY    27  23  86 SE5       30.15S WCI  21
$$
MNZ071>073-080-081-089-090-097-098-200000-
   Southwest Minnesota

CITY           SKY/WX    TMP DP  RH WIND       PRES   REMARKS
MONTEVIDEO     CLOUDY    30  30 100 SW9       30.11S WCI  22
GRANITE FALLS  CLOUDY    31  28  88 S12       30.13R FOG     WCI  22
CANBY          CLOUDY    31  29  92 S5        30.09R FOG     WCI  27
MARSHALL       CLOUDY    30  27  86 S10       30.10R WCI  21
REDWOOD FALLS  CLOUDY    33  28  81 S13       30.12S WCI  24
OLIVIA         CLOUDY    34  32  93 S8        30.12S WCI  27
PIPESTONE      CLOUDY    28  28 100 S6        30.07S FOG     WCI  22
WINDOM         CLOUDY    32  28  86 S10       30.12S WCI  24
WORTHINGTON    CLOUDY    30  27  86 S15       30.11S WCI  19
JACKSON        CLOUDY    32  28  86 S10       30.13S WCI  24
TRACY          CLOUDY    32  30  91 S10G16    30.10R WCI  24
SLAYTON        CLOUDY    30  29  97 S7        30.09F WCI  23
$$
MNZ065>067-074>077-082>085-091>093-200000-
   South Central Minnesota

CITY           SKY/WX    TMP DP  RH WIND       PRES   REMARKS
MANKATO        CLOUDY    30  27  86 S10       30.18R WCI  21
NEW ULM        CLOUDY    32  30  93 S10       30.15S FOG     WCI  24
ST JAMES       CLOUDY    34  30  86 SE12      30.16S FOG     WCI  25
FAIRMONT       CLOUDY    32  25  74 S12       30.16S WCI  23
GLENCOE        CLOUDY    32  30  92 SE9       30.15S FOG     WCI  24
FARIBAULT      CLOUDY    30  27  86 SE7       30.19S WCI  23
OWATONNA       PTCLDY    28  25  86 SE13      30.19S WCI  18
WASECA         CLOUDY    30  27  86 S9        30.20S FOG     WCI  22
ALBERT LEA     CLOUDY    30  28  93 S7        30.19S FOG     WCI  23
$$
MNZ078>079-086>088-094>096-200000-
   Southeast Minnesota

CITY           SKY/WX    TMP DP  RH WIND       PRES   REMARKS
ROCHESTER      CLOUDY    28  23  81 S9        30.21S WCI  19
RED WING       CLOUDY    30  23  74 SE6       30.22S WCI  24
STANTON        CLOUDY    31  25  81 S8        30.19S WCI  23
DODGE CENTER   CLOUDY    28  27  93 S10       30.19S FOG     WCI  19
WINONA         CLOUDY    32  23  69 S7        30.27S WCI  26
AUSTIN         CLOUDY    28  25  86 S6        30.20S WCI  22
PRESTON        CLOUDY    27  22  80 S10       30.22S WCI  17
$$
ABBREVIATIONS USED IN REMARKS
   TC - TEMPERATURES IN CELSIUS
  WCI - WIND CHILL INDEX
   HX - HEAT INDEX
  VSB - VISIBILITY
$$


USA.gov is the U.S. government's official web portal to all federal, state and local government web resources and services.